Regional Weather Roundup
Issued by NWS

Home | Current Version | Previous Version | Graphics & Text | Print | Product List | Glossary On
Versions: 1 2 3 4 5 6 7 8 9 10 11 12 13 14 15 16 17 18 19 20 21 22 23 24 25 26 27 28 29 30 31 32 33 34 35 36 37 38 39 40 41 42 43 44 45 46 47 48 49 50
000
ASUS43 KTOP 231408
RWRKS

WEATHER ROUNDUP FOR KANSAS
NATIONAL WEATHER SERVICE GOODLAND KS
800 AM CST SUN NOV 23 2014

NOTE:  "FAIR" INDICATES FEW OR NO CLOUDS BELOW 12,000 FEET WITH NO
SIGNIFICANT WEATHER AND/OR OBSTRUCTIONS TO VISIBILITY.

KSZ001>006-013>018-027>032-041>047-231500-
NORTHWEST KANSAS

CITY           SKY/WX    TMP DP  RH WIND       PRES   REMARKS
GOODLAND       CLOUDY    42  17  36 N23G33    29.65R
HAYS           MOCLDY    45  37  76 N18       29.51R
HILL CITY      MOCLDY    46  33  60 N24G32    29.55R
RUSSELL        CLOUDY    50  47  89 NE5       29.48R
$$

KSZ061>065-074>080-084>089-231500-
SOUTHWEST KANSAS

CITY           SKY/WX    TMP DP  RH WIND       PRES   REMARKS
DODGE CITY     FOG       42  40  92 N12       29.49R VSB 3/4
ELKHART          N/A    N/A N/A N/A MISG        N/A
GARDEN CITY    CLEAR     41  35  79 N22       29.51R
GREAT BEND     CLOUDY    50  45  81 E5        29.48S
LIBERAL        CLEAR     43  34  70 N18       29.53R
PRATT          CLOUDY    48  46  93 CALM      29.47R
$$

KSZ066>073-081>083-090>101-231500-
SOUTHEAST KANSAS

CITY           SKY/WX    TMP DP  RH WIND       PRES   REMARKS
CHANUTE        CLOUDY    57  55  93 S13       29.49F
COFFEYVILLE    CLOUDY    58  55  90 SE10      29.50F
HUTCHINSON     CLOUDY    52  50  93 S6        29.46F
MEDICINE LODGE   N/A     51  50  96 E3        29.44R
NEWTON         CLOUDY    54  46  76 S12       29.49F
PARSONS        CLOUDY    58  56  93 S6        29.51F
WICHITA INTL   CLOUDY    54  51  90 S10       29.47S
WICHITA JABRA  CLOUDY    54  51  90 SW8       29.47R
WICHITA MCCONL CLOUDY    54  54 100 SW8       29.47S
WINFIELD       CLOUDY    56  53  90 S10       29.46F
$$

KSZ007>012-019>026-033>040-048>060-102>105-231500-
NORTHEAST KANSAS

CITY           SKY/WX    TMP DP  RH WIND       PRES   REMARKS
CONCORDIA      CLOUDY    51  50  96 S10       29.49S
EMPORIA        CLOUDY    55  53  93 S9        29.48S
LAWRENCE       CLOUDY    54  52  93 SE3       29.51S FOG
MANHATTAN      LGT RAIN  54  54 100 SW3       29.49F FOG
MARYSVILLE     CLOUDY    54  52  94 SW7       29.48R
OLATHE IND     CLOUDY    53  53 100 S9        29.51F FOG
OLATHE EXE     CLOUDY    53  53 100 S9        29.50F FOG
SALINA         CLOUDY    52  50  93 S3        29.49F FOG
TOPEKA BILLARD CLOUDY    56  54  93 SW3       29.52R
TOPEKA FORBES  CLOUDY    56  53  90 W3        29.51R FOG
$$


USA.gov is the U.S. government's official web portal to all federal, state and local government web resources and services.